owner,sensor,date,latitude,longitude,dew_point_temperature,qcFlag 
ADCP,ioos:station:wmo:42887:1,2014-01-01T00:00:00Z,28.1910,-88.4960,12.5,11111222 
ADCP,ioos:station:wmo:42887:1,2014-01-01T00:20:00Z,28.1910,-88.4960,12.9,11111222 
ADCP,ioos:station:wmo:42887:1,2014-01-01T00:40:00Z,28.1910,-88.4960,13.0,11111222 
ADCP,ioos:station:wmo:42887:1,2014-01-01T01:00:00Z,28.1910,-88.4960,13.3,11111222 
ADCP,ioos:station:wmo:42887:1,2014-01-01T01:20:00Z,28.1910,-88.4960,13.3,11111222 
ADCP,ioos:station:wmo:42887:1,2014-01-01T01:40:00Z,28.1910,-88.4960,13.4,11111222 
ADCP,ioos:station:wmo:42887:1,2014-01-01T02:00:00Z,28.1910,-88.4960,13.3,11111222 
ADCP,ioos:station:wmo:42887:1,2014-01-01T02:20:00Z,28.1910,-88.4960,13.4,11111222 
ADCP,ioos:station:wmo:42887:1,2014-01-01T02:40:00Z,28.1910,-88.4960,13.3,11111222 
ADCP,ioos:station:wmo:42887:1,2014-01-01T03:00:00Z,28.1910,-88.4960,13.5,11111222 
ADCP,ioos:station:wmo:42887:1,2014-01-01T03:20:00Z,28.1910,-88.4960,13.6,11111222 
ADCP,ioos:station:wmo:42887:1,2014-01-01T03:40:00Z,28.1910,-88.4960,13.7,11111222 
ADCP,ioos:station:wmo:42887:1,2014-01-01T04:00:00Z,28.1910,-88.4960,13.3,11111222 
ADCP,ioos:station:wmo:42887:1,2014-01-01T04:20:00Z,28.1910,-88.4960,13.1,11111222 
ADCP,ioos:station:wmo:42887:1,2014-01-01T04:40:00Z,28.1910,-88.4960,12.8,11111222 
ADCP,ioos:station:wmo:42887:1,2014-01-01T05:00:00Z,28.1910,-88.4960,13.1,11111222 
ADCP,ioos:station:wmo:42887:1,2014-01-01T05:20:00Z,28.1910,-88.4960,13.1,11111222 
ADCP,ioos:station:wmo:42887:1,2014-01-01T05:40:00Z,28.1910,-88.4960,13.0,11111222 
ADCP,ioos:station:wmo:42887:1,2014-01-01T06:00:00Z,28.1910,-88.4960,13.0,11111222 
ADCP,ioos:station:wmo:42887:1,2014-01-01T06:20:00Z,28.1910,-88.4960,13.0,11111222 
ADCP,ioos:station:wmo:42887:1,2014-01-01T06:40:00Z,28.1910,-88.4960,12.8,11111222 
ADCP,ioos:station:wmo:42887:1,2014-01-01T07:00:00Z,28.1910,-88.4960,12.4,11111222 
ADCP,ioos:station:wmo:42887:1,2014-01-01T07:20:00Z,28.1910,-88.4960,12.2,11111222 
ADCP,ioos:station:wmo:42887:1,2014-01-01T07:40:00Z,28.1910,-88.4960,12.4,11111222 
ADCP,ioos:station:wmo:42887:1,2014-01-01T08:00:00Z,28.1910,-88.4960,12.6,11111222 
ADCP,ioos:station:wmo:42887:1,2014-01-01T08:20:00Z,28.1910,-88.4960,12.7,11111222 
ADCP,ioos:station:wmo:42887:1,2014-01-01T08:40:00Z,28.1910,-88.4960,13.1,11111222 
ADCP,ioos:station:wmo:42887:1,2014-01-01T09:00:00Z,28.1910,-88.4960,13.5,11111222 
ADCP,ioos:station:wmo:42887:1,2014-01-01T09:20:00Z,28.1910,-88.4960,13.6,11111222 
ADCP,ioos:station:wmo:42887:1,2014-01-01T09:40:00Z,28.1910,-88.4960,14.0,11111222 
ADCP,ioos:station:wmo:42887:1,2014-01-01T10:00:00Z,28.1910,-88.4960,14.0,11111222 
ADCP,ioos:station:wmo:42887:1,2014-01-01T10:20:00Z,28.1910,-88.4960,14.2,11111222 
ADCP,ioos:station:wmo:42887:1,2014-01-01T10:40:00Z,28.1910,-88.4960,14.4,11111222 
ADCP,ioos:station:wmo:42887:1,2014-01-01T11:00:00Z,28.1910,-88.4960,14.8,11111222 
ADCP,ioos:station:wmo:42887:1,2014-01-01T11:20:00Z,28.1910,-88.4960,14.6,11111222 
ADCP,ioos:station:wmo:42887:1,2014-01-01T11:40:00Z,28.1910,-88.4960,14.8,11111222 
ADCP,ioos:station:wmo:42887:1,2014-01-01T12:00:00Z,28.1910,-88.4960,15.5,11111222 
ADCP,ioos:station:wmo:42887:1,2014-01-01T12:20:00Z,28.1910,-88.4960,16.0,11111222 
ADCP,ioos:station:wmo:42887:1,2014-01-01T12:40:00Z,28.1910,-88.4960,16.4,11111222 
ADCP,ioos:station:wmo:42887:1,2014-01-01T13:00:00Z,28.1910,-88.4960,16.7,11111222 
ADCP,ioos:station:wmo:42887:1,2014-01-01T13:20:00Z,28.1910,-88.4960,16.8,11111222 
ADCP,ioos:station:wmo:42887:1,2014-01-01T13:40:00Z,28.1910,-88.4960,16.8,11111222 
ADCP,ioos:station:wmo:42887:1,2014-01-01T14:00:00Z,28.1910,-88.4960,16.2,11111222 
ADCP,ioos:station:wmo:42887:1,2014-01-01T14:20:00Z,28.1910,-88.4960,16.1,11111222 
ADCP,ioos:station:wmo:42887:1,2014-01-01T14:40:00Z,28.1910,-88.4960,15.0,11111222 
ADCP,ioos:station:wmo:42887:1,2014-01-01T15:00:00Z,28.1910,-88.4960,15.2,11111222 
ADCP,ioos:station:wmo:42887:1,2014-01-01T15:20:00Z,28.1910,-88.4960,15.3,11111222 
ADCP,ioos:station:wmo:42887:1,2014-01-01T15:40:00Z,28.1910,-88.4960,14.8,11111222 
ADCP,ioos:station:wmo:42887:1,2014-01-01T16:00:00Z,28.1910,-88.4960,15.0,11111222 
ADCP,ioos:station:wmo:42887:1,2014-01-01T16:20:00Z,28.1910,-88.4960,15.2,11111222 
ADCP,ioos:station:wmo:42887:1,2014-01-01T16:40:00Z,28.1910,-88.4960,15.6,11111222 
ADCP,ioos:station:wmo:42887:1,2014-01-01T17:00:00Z,28.1910,-88.4960,16.5,11111222 
ADCP,ioos:station:wmo:42887:1,2014-01-01T17:20:00Z,28.1910,-88.4960,16.8,11111222 
ADCP,ioos:station:wmo:42887:1,2014-01-01T17:40:00Z,28.1910,-88.4960,17.2,11111222 
ADCP,ioos:station:wmo:42887:1,2014-01-01T18:00:00Z,28.1910,-88.4960,17.5,11111222 
ADCP,ioos:station:wmo:42887:1,2014-01-01T18:20:00Z,28.1910,-88.4960,17.9,11111222 
ADCP,ioos:station:wmo:42887:1,2014-01-01T18:40:00Z,28.1910,-88.4960,18.4,11111222 
ADCP,ioos:station:wmo:42887:1,2014-01-01T19:00:00Z,28.1910,-88.4960,18.9,11111222 
ADCP,ioos:station:wmo:42887:1,2014-01-01T19:20:00Z,28.1910,-88.4960,18.6,11111222 
ADCP,ioos:station:wmo:42887:1,2014-01-01T19:40:00Z,28.1910,-88.4960,17.8,11111222 
ADCP,ioos:station:wmo:42887:1,2014-01-01T20:00:00Z,28.1910,-88.4960,17.4,11111222 
ADCP,ioos:station:wmo:42887:1,2014-01-01T20:20:00Z,28.1910,-88.4960,17.6,11111222 
ADCP,ioos:station:wmo:42887:1,2014-01-01T20:40:00Z,28.1910,-88.4960,17.7,11111222 
ADCP,ioos:station:wmo:42887:1,2014-01-01T21:00:00Z,28.1910,-88.4960,17.8,11111222 
ADCP,ioos:station:wmo:42887:1,2014-01-01T21:20:00Z,28.1910,-88.4960,17.8,11111222 
ADCP,ioos:station:wmo:42887:1,2014-01-01T21:40:00Z,28.1910,-88.4960,18.1,11111222 
ADCP,ioos:station:wmo:42887:1,2014-01-01T22:00:00Z,28.1910,-88.4960,17.9,11111222 
ADCP,ioos:station:wmo:42887:1,2014-01-01T22:20:00Z,28.1910,-88.4960,18.0,11111222 
ADCP,ioos:station:wmo:42887:1,2014-01-01T22:40:00Z,28.1910,-88.4960,18.3,11111222 
ADCP,ioos:station:wmo:42887:1,2014-01-01T23:00:00Z,28.1910,-88.4960,18.7,11111222 
ADCP,ioos:station:wmo:42887:1,2014-01-01T23:20:00Z,28.1910,-88.4960,17.7,11111222 
ADCP,ioos:station:wmo:42887:1,2014-01-01T23:40:00Z,28.1910,-88.4960,18.4,11111222 
ADCP,ioos:station:wmo:42887:1,2014-01-02T00:00:00Z,28.1910,-88.4960,18.6,11111222 
ADCP,ioos:station:wmo:42887:1,2014-01-02T00:20:00Z,28.1910,-88.4960,18.9,11111222 
ADCP,ioos:station:wmo:42887:1,2014-01-02T00:40:00Z,28.1910,-88.4960,19.2,11111222 
ADCP,ioos:station:wmo:42887:1,2014-01-02T01:00:00Z,28.1910,-88.4960,19.3,11111222 
ADCP,ioos:station:wmo:42887:1,2014-01-02T01:20:00Z,28.1910,-88.4960,19.7,11111222 
ADCP,ioos:station:wmo:42887:1,2014-01-02T01:40:00Z,28.1910,-88.4960,19.7,11111222 
ADCP,ioos:station:wmo:42887:1,2014-01-02T02:00:00Z,28.1910,-88.4960,19.8,11111222 
ADCP,ioos:station:wmo:42887:1,2014-01-02T02:20:00Z,28.1910,-88.4960,20.0,11111222 
ADCP,ioos:station:wmo:42887:1,2014-01-02T02:40:00Z,28.1910,-88.4960,20.1,11111222 
ADCP,ioos:station:wmo:42887:1,2014-01-02T03:00:00Z,28.1910,-88.4960,20.0,11111222 
ADCP,ioos:station:wmo:42887:1,2014-01-02T03:20:00Z,28.1910,-88.4960,20.2,11111222 
ADCP,ioos:station:wmo:42887:1,2014-01-02T03:40:00Z,28.1910,-88.4960,20.3,11111222 
ADCP,ioos:station:wmo:42887:1,2014-01-02T04:00:00Z,28.1910,-88.4960,20.5,11111222 
ADCP,ioos:station:wmo:42887:1,2014-01-02T04:20:00Z,28.1910,-88.4960,20.6,11111222 
ADCP,ioos:station:wmo:42887:1,2014-01-02T04:40:00Z,28.1910,-88.4960,20.7,11111222 
ADCP,ioos:station:wmo:42887:1,2014-01-02T05:00:00Z,28.1910,-88.4960,20.6,11111222 
ADCP,ioos:station:wmo:42887:1,2014-01-02T05:20:00Z,28.1910,-88.4960,20.3,11111222 
ADCP,ioos:station:wmo:42887:1,2014-01-02T05:40:00Z,28.1910,-88.4960,20.0,11111222 
ADCP,ioos:station:wmo:42887:1,2014-01-02T06:00:00Z,28.1910,-88.4960,20.2,11111222 
ADCP,ioos:station:wmo:42887:1,2014-01-02T06:20:00Z,28.1910,-88.4960,20.0,11111222 
ADCP,ioos:station:wmo:42887:1,2014-01-02T06:40:00Z,28.1910,-88.4960,18.0,11111222 
ADCP,ioos:station:wmo:42887:1,2014-01-02T07:00:00Z,28.1910,-88.4960,20.0,11111222 
ADCP,ioos:station:wmo:42887:1,2014-01-02T07:20:00Z,28.1910,-88.4960,20.2,11111222 
ADCP,ioos:station:wmo:42887:1,2014-01-02T07:40:00Z,28.1910,-88.4960,20.2,11111222 
ADCP,ioos:station:wmo:42887:1,2014-01-02T08:00:00Z,28.1910,-88.4960,20.3,11111222 
ADCP,ioos:station:wmo:42887:1,2014-01-02T08:20:00Z,28.1910,-88.4960,20.1,11111222 
ADCP,ioos:station:wmo:42887:1,2014-01-02T08:40:00Z,28.1910,-88.4960,20.1,11111222 
ADCP,ioos:station:wmo:42887:1,2014-01-02T09:00:00Z,28.1910,-88.4960,20.1,11111222 
ADCP,ioos:station:wmo:42887:1,2014-01-02T09:20:00Z,28.1910,-88.4960,19.4,11111222 
ADCP,ioos:station:wmo:42887:1,2014-01-02T09:40:00Z,28.1910,-88.4960,20.2,11111222 
ADCP,ioos:station:wmo:42887:1,2014-01-02T10:00:00Z,28.1910,-88.4960,20.4,11111222 
ADCP,ioos:station:wmo:42887:1,2014-01-02T10:20:00Z,28.1910,-88.4960,20.5,11111222 
ADCP,ioos:station:wmo:42887:1,2014-01-02T10:40:00Z,28.1910,-88.4960,20.4,11111222 
ADCP,ioos:station:wmo:42887:1,2014-01-02T11:00:00Z,28.1910,-88.4960,20.6,11111222 
ADCP,ioos:station:wmo:42887:1,2014-01-02T11:20:00Z,28.1910,-88.4960,20.8,11111222 
ADCP,ioos:station:wmo:42887:1,2014-01-02T11:40:00Z,28.1910,-88.4960,21.0,11111222 
ADCP,ioos:station:wmo:42887:1,2014-01-02T12:00:00Z,28.1910,-88.4960,20.9,11111222 
ADCP,ioos:station:wmo:42887:1,2014-01-02T12:20:00Z,28.1910,-88.4960,20.9,11111222 
ADCP,ioos:station:wmo:42887:1,2014-01-02T12:40:00Z,28.1910,-88.4960,20.1,11111222 
ADCP,ioos:station:wmo:42887:1,2014-01-02T13:00:00Z,28.1910,-88.4960,19.9,11111222 
ADCP,ioos:station:wmo:42887:1,2014-01-02T13:20:00Z,28.1910,-88.4960,20.4,11111222 
ADCP,ioos:station:wmo:42887:1,2014-01-02T13:40:00Z,28.1910,-88.4960,20.4,11111222 
ADCP,ioos:station:wmo:42887:1,2014-01-02T14:00:00Z,28.1910,-88.4960,20.9,11111222 
ADCP,ioos:station:wmo:42887:1,2014-01-02T14:20:00Z,28.1910,-88.4960,20.8,11111222 
ADCP,ioos:station:wmo:42887:1,2014-01-02T14:40:00Z,28.1910,-88.4960,19.5,11111222 
ADCP,ioos:station:wmo:42887:1,2014-01-02T15:00:00Z,28.1910,-88.4960,19.4,11111222 
ADCP,ioos:station:wmo:42887:1,2014-01-02T15:20:00Z,28.1910,-88.4960,17.4,11111222 
ADCP,ioos:station:wmo:42887:1,2014-01-02T15:40:00Z,28.1910,-88.4960,17.7,11111222 
ADCP,ioos:station:wmo:42887:1,2014-01-02T16:00:00Z,28.1910,-88.4960,16.6,11111222 
ADCP,ioos:station:wmo:42887:1,2014-01-02T16:20:00Z,28.1910,-88.4960,15.3,11111222 
ADCP,ioos:station:wmo:42887:1,2014-01-02T16:40:00Z,28.1910,-88.4960,13.9,11111222 
ADCP,ioos:station:wmo:42887:1,2014-01-02T17:00:00Z,28.1910,-88.4960,12.5,11111222 
ADCP,ioos:station:wmo:42887:1,2014-01-02T17:20:00Z,28.1910,-88.4960,13.2,11111222 
ADCP,ioos:station:wmo:42887:1,2014-01-02T17:40:00Z,28.1910,-88.4960,12.7,11111222 
ADCP,ioos:station:wmo:42887:1,2014-01-02T18:00:00Z,28.1910,-88.4960,12.4,11111222 
ADCP,ioos:station:wmo:42887:1,2014-01-02T18:20:00Z,28.1910,-88.4960,12.7,11111222 
ADCP,ioos:station:wmo:42887:1,2014-01-02T18:40:00Z,28.1910,-88.4960,12.9,11111222 
ADCP,ioos:station:wmo:42887:1,2014-01-02T19:00:00Z,28.1910,-88.4960,12.4,11111222 
ADCP,ioos:station:wmo:42887:1,2014-01-02T19:20:00Z,28.1910,-88.4960,11.1,11111222 
ADCP,ioos:station:wmo:42887:1,2014-01-02T19:40:00Z,28.1910,-88.4960,10.8,11111222 
ADCP,ioos:station:wmo:42887:1,2014-01-02T20:00:00Z,28.1910,-88.4960,10.2,11111222 
ADCP,ioos:station:wmo:42887:1,2014-01-02T20:20:00Z,28.1910,-88.4960,10.6,11111222 
ADCP,ioos:station:wmo:42887:1,2014-01-02T20:40:00Z,28.1910,-88.4960,10.2,11111222 
ADCP,ioos:station:wmo:42887:1,2014-01-02T21:00:00Z,28.1910,-88.4960,10.2,11111222 
ADCP,ioos:station:wmo:42887:1,2014-01-02T21:20:00Z,28.1910,-88.4960,10.1,11111222 
ADCP,ioos:station:wmo:42887:1,2014-01-02T21:40:00Z,28.1910,-88.4960,10.0,11111222 
ADCP,ioos:station:wmo:42887:1,2014-01-02T22:00:00Z,28.1910,-88.4960,8.6,11111222 
ADCP,ioos:station:wmo:42887:1,2014-01-02T22:20:00Z,28.1910,-88.4960,8.9,11111222 
ADCP,ioos:station:wmo:42887:1,2014-01-02T22:40:00Z,28.1910,-88.4960,8.4,11111222 
ADCP,ioos:station:wmo:42887:1,2014-01-02T23:00:00Z,28.1910,-88.4960,8.0,11111222 
ADCP,ioos:station:wmo:42887:1,2014-01-02T23:20:00Z,28.1910,-88.4960,7.7,11111222 
ADCP,ioos:station:wmo:42887:1,2014-01-02T23:40:00Z,28.1910,-88.4960,7.5,11111222 
ADCP,ioos:station:wmo:42887:1,2014-01-03T00:00:00Z,28.1910,-88.4960,7.0,11111222 
ADCP,ioos:station:wmo:42887:1,2014-01-03T00:20:00Z,28.1910,-88.4960,6.4,11111222 
ADCP,ioos:station:wmo:42887:1,2014-01-03T00:40:00Z,28.1910,-88.4960,5.8,11111222 
ADCP,ioos:station:wmo:42887:1,2014-01-03T01:00:00Z,28.1910,-88.4960,5.0,11111222 
ADCP,ioos:station:wmo:42887:1,2014-01-03T01:20:00Z,28.1910,-88.4960,4.8,11111222 
ADCP,ioos:station:wmo:42887:1,2014-01-03T01:40:00Z,28.1910,-88.4960,4.7,11111222 
ADCP,ioos:station:wmo:42887:1,2014-01-03T02:00:00Z,28.1910,-88.4960,4.7,11111222 
ADCP,ioos:station:wmo:42887:1,2014-01-03T02:20:00Z,28.1910,-88.4960,4.6,11111222 
ADCP,ioos:station:wmo:42887:1,2014-01-03T02:40:00Z,28.1910,-88.4960,3.9,11111222 
ADCP,ioos:station:wmo:42887:1,2014-01-03T03:00:00Z,28.1910,-88.4960,3.4,11111222 
ADCP,ioos:station:wmo:42887:1,2014-01-03T03:20:00Z,28.1910,-88.4960,2.7,11111222 
ADCP,ioos:station:wmo:42887:1,2014-01-03T03:40:00Z,28.1910,-88.4960,2.0,11111222 
ADCP,ioos:station:wmo:42887:1,2014-01-03T04:00:00Z,28.1910,-88.4960,1.7,11111222 
ADCP,ioos:station:wmo:42887:1,2014-01-03T04:20:00Z,28.1910,-88.4960,3.2,11111222 
ADCP,ioos:station:wmo:42887:1,2014-01-03T04:40:00Z,28.1910,-88.4960,2.7,11111222 
ADCP,ioos:station:wmo:42887:1,2014-01-03T05:00:00Z,28.1910,-88.4960,2.1,11111222 
ADCP,ioos:station:wmo:42887:1,2014-01-03T05:20:00Z,28.1910,-88.4960,1.6,11111222 
ADCP,ioos:station:wmo:42887:1,2014-01-03T05:40:00Z,28.1910,-88.4960,2.7,11111222 
ADCP,ioos:station:wmo:42887:1,2014-01-03T06:00:00Z,28.1910,-88.4960,2.4,11111222 
ADCP,ioos:station:wmo:42887:1,2014-01-03T06:20:00Z,28.1910,-88.4960,3.1,11111222 
ADCP,ioos:station:wmo:42887:1,2014-01-03T06:40:00Z,28.1910,-88.4960,3.3,11111222 
ADCP,ioos:station:wmo:42887:1,2014-01-03T07:00:00Z,28.1910,-88.4960,4.0,11111222 
ADCP,ioos:station:wmo:42887:1,2014-01-03T07:20:00Z,28.1910,-88.4960,3.5,11111222 
ADCP,ioos:station:wmo:42887:1,2014-01-03T07:40:00Z,28.1910,-88.4960,3.5,11111222 
ADCP,ioos:station:wmo:42887:1,2014-01-03T08:00:00Z,28.1910,-88.4960,3.7,11111222 
ADCP,ioos:station:wmo:42887:1,2014-01-03T08:20:00Z,28.1910,-88.4960,3.3,11111222 
ADCP,ioos:station:wmo:42887:1,2014-01-03T08:40:00Z,28.1910,-88.4960,3.4,11111222 
ADCP,ioos:station:wmo:42887:1,2014-01-03T09:00:00Z,28.1910,-88.4960,2.3,11111222 
ADCP,ioos:station:wmo:42887:1,2014-01-03T09:20:00Z,28.1910,-88.4960,2.5,11111222 
ADCP,ioos:station:wmo:42887:1,2014-01-03T09:40:00Z,28.1910,-88.4960,2.6,11111222 
ADCP,ioos:station:wmo:42887:1,2014-01-03T10:00:00Z,28.1910,-88.4960,3.4,11111222 
ADCP,ioos:station:wmo:42887:1,2014-01-03T10:20:00Z,28.1910,-88.4960,2.3,11111222 
ADCP,ioos:station:wmo:42887:1,2014-01-03T10:40:00Z,28.1910,-88.4960,2.2,11111222 
ADCP,ioos:station:wmo:42887:1,2014-01-03T11:00:00Z,28.1910,-88.4960,2.3,11111222 
ADCP,ioos:station:wmo:42887:1,2014-01-03T11:20:00Z,28.1910,-88.4960,2.5,11111222 
ADCP,ioos:station:wmo:42887:1,2014-01-03T11:40:00Z,28.1910,-88.4960,2.6,11111222 
ADCP,ioos:station:wmo:42887:1,2014-01-03T12:00:00Z,28.1910,-88.4960,2.2,11111222 
ADCP,ioos:station:wmo:42887:1,2014-01-03T12:20:00Z,28.1910,-88.4960,1.3,11111222 
ADCP,ioos:station:wmo:42887:1,2014-01-03T12:40:00Z,28.1910,-88.4960,2.6,11111222 
ADCP,ioos:station:wmo:42887:1,2014-01-03T13:00:00Z,28.1910,-88.4960,2.9,11111222 
ADCP,ioos:station:wmo:42887:1,2014-01-03T13:20:00Z,28.1910,-88.4960,2.7,11111222 
ADCP,ioos:station:wmo:42887:1,2014-01-03T13:40:00Z,28.1910,-88.4960,1.0,11111222 
ADCP,ioos:station:wmo:42887:1,2014-01-03T14:00:00Z,28.1910,-88.4960,-0.3,11144222 
ADCP,ioos:station:wmo:42887:1,2014-01-03T14:20:00Z,28.1910,-88.4960,-0.6,11144222 
ADCP,ioos:station:wmo:42887:1,2014-01-03T14:40:00Z,28.1910,-88.4960,-1.1,11144222 
ADCP,ioos:station:wmo:42887:1,2014-01-03T15:00:00Z,28.1910,-88.4960,-0.7,11144222 
ADCP,ioos:station:wmo:42887:1,2014-01-03T15:20:00Z,28.1910,-88.4960,0.3,11111222 
ADCP,ioos:station:wmo:42887:1,2014-01-03T15:40:00Z,28.1910,-88.4960,0.7,11111222 
ADCP,ioos:station:wmo:42887:1,2014-01-03T16:00:00Z,28.1910,-88.4960,2.2,11111222 
ADCP,ioos:station:wmo:42887:1,2014-01-03T16:20:00Z,28.1910,-88.4960,1.8,11111222 
ADCP,ioos:station:wmo:42887:1,2014-01-03T16:40:00Z,28.1910,-88.4960,2.3,11111222 
ADCP,ioos:station:wmo:42887:1,2014-01-03T17:00:00Z,28.1910,-88.4960,2.5,11111222 
ADCP,ioos:station:wmo:42887:1,2014-01-03T17:20:00Z,28.1910,-88.4960,2.1,11111222 
ADCP,ioos:station:wmo:42887:1,2014-01-03T17:40:00Z,28.1910,-88.4960,2.5,11111222 
ADCP,ioos:station:wmo:42887:1,2014-01-03T18:00:00Z,28.1910,-88.4960,3.2,11111222 
ADCP,ioos:station:wmo:42887:1,2014-01-03T18:20:00Z,28.1910,-88.4960,2.6,11111222 
ADCP,ioos:station:wmo:42887:1,2014-01-03T18:40:00Z,28.1910,-88.4960,2.6,11111222 
ADCP,ioos:station:wmo:42887:1,2014-01-03T19:00:00Z,28.1910,-88.4960,2.6,11111222 
ADCP,ioos:station:wmo:42887:1,2014-01-03T19:20:00Z,28.1910,-88.4960,2.4,11111222 
ADCP,ioos:station:wmo:42887:1,2014-01-03T19:40:00Z,28.1910,-88.4960,2.1,11111222 
ADCP,ioos:station:wmo:42887:1,2014-01-03T20:00:00Z,28.1910,-88.4960,2.2,11111222 
ADCP,ioos:station:wmo:42887:1,2014-01-03T20:20:00Z,28.1910,-88.4960,2.8,11111222 
ADCP,ioos:station:wmo:42887:1,2014-01-03T20:40:00Z,28.1910,-88.4960,3.0,11111222 
ADCP,ioos:station:wmo:42887:1,2014-01-03T21:00:00Z,28.1910,-88.4960,2.6,11111222 
ADCP,ioos:station:wmo:42887:1,2014-01-03T21:20:00Z,28.1910,-88.4960,2.4,11111222 
ADCP,ioos:station:wmo:42887:1,2014-01-03T21:40:00Z,28.1910,-88.4960,2.7,11111222 
ADCP,ioos:station:wmo:42887:1,2014-01-03T22:00:00Z,28.1910,-88.4960,2.6,11111222 
ADCP,ioos:station:wmo:42887:1,2014-01-03T22:20:00Z,28.1910,-88.4960,2.9,11111222 
ADCP,ioos:station:wmo:42887:1,2014-01-03T22:40:00Z,28.1910,-88.4960,2.8,11111222 
ADCP,ioos:station:wmo:42887:1,2014-01-03T23:00:00Z,28.1910,-88.4960,2.7,11111222 
ADCP,ioos:station:wmo:42887:1,2014-01-03T23:20:00Z,28.1910,-88.4960,2.9,11111222 
ADCP,ioos:station:wmo:42887:1,2014-01-03T23:40:00Z,28.1910,-88.4960,3.1,11111222 
ADCP,ioos:station:wmo:42887:1,2014-01-04T00:00:00Z,28.1910,-88.4960,2.4,11111222 
ADCP,ioos:station:wmo:42887:1,2014-01-04T00:20:00Z,28.1910,-88.4960,2.6,11111222 
ADCP,ioos:station:wmo:42887:1,2014-01-04T00:40:00Z,28.1910,-88.4960,3.9,11111222 
ADCP,ioos:station:wmo:42887:1,2014-01-04T01:00:00Z,28.1910,-88.4960,4.3,11111222 
ADCP,ioos:station:wmo:42887:1,2014-01-04T01:20:00Z,28.1910,-88.4960,3.2,11111222 
ADCP,ioos:station:wmo:42887:1,2014-01-04T01:40:00Z,28.1910,-88.4960,3.3,11111222 
ADCP,ioos:station:wmo:42887:1,2014-01-04T02:00:00Z,28.1910,-88.4960,3.8,11111222 
ADCP,ioos:station:wmo:42887:1,2014-01-04T02:20:00Z,28.1910,-88.4960,4.0,11111222 
ADCP,ioos:station:wmo:42887:1,2014-01-04T02:40:00Z,28.1910,-88.4960,3.8,11111222 
ADCP,ioos:station:wmo:42887:1,2014-01-04T03:00:00Z,28.1910,-88.4960,3.9,11111222 
ADCP,ioos:station:wmo:42887:1,2014-01-04T03:20:00Z,28.1910,-88.4960,4.2,11111222 
ADCP,ioos:station:wmo:42887:1,2014-01-04T03:40:00Z,28.1910,-88.4960,3.9,11111222 
ADCP,ioos:station:wmo:42887:1,2014-01-04T04:00:00Z,28.1910,-88.4960,4.1,11111222 
ADCP,ioos:station:wmo:42887:1,2014-01-04T04:20:00Z,28.1910,-88.4960,4.7,11111222 
ADCP,ioos:station:wmo:42887:1,2014-01-04T04:40:00Z,28.1910,-88.4960,5.4,11111222 
ADCP,ioos:station:wmo:42887:1,2014-01-04T05:00:00Z,28.1910,-88.4960,4.9,11111222 
ADCP,ioos:station:wmo:42887:1,2014-01-04T05:20:00Z,28.1910,-88.4960,4.7,11111222 
ADCP,ioos:station:wmo:42887:1,2014-01-04T05:40:00Z,28.1910,-88.4960,4.3,11111222 
ADCP,ioos:station:wmo:42887:1,2014-01-04T06:00:00Z,28.1910,-88.4960,5.6,11111222 
ADCP,ioos:station:wmo:42887:1,2014-01-04T06:20:00Z,28.1910,-88.4960,5.1,11111222 
ADCP,ioos:station:wmo:42887:1,2014-01-04T06:40:00Z,28.1910,-88.4960,5.6,11111222 
ADCP,ioos:station:wmo:42887:1,2014-01-04T07:00:00Z,28.1910,-88.4960,5.8,11111222 
ADCP,ioos:station:wmo:42887:1,2014-01-04T07:20:00Z,28.1910,-88.4960,5.8,11111222 
ADCP,ioos:station:wmo:42887:1,2014-01-04T07:40:00Z,28.1910,-88.4960,5.4,11111222 
ADCP,ioos:station:wmo:42887:1,2014-01-04T08:00:00Z,28.1910,-88.4960,6.0,11111222 
ADCP,ioos:station:wmo:42887:1,2014-01-04T08:20:00Z,28.1910,-88.4960,6.2,11111222 
ADCP,ioos:station:wmo:42887:1,2014-01-04T08:40:00Z,28.1910,-88.4960,6.6,11111222 
ADCP,ioos:station:wmo:42887:1,2014-01-04T09:00:00Z,28.1910,-88.4960,6.4,11111222 
ADCP,ioos:station:wmo:42887:1,2014-01-04T09:20:00Z,28.1910,-88.4960,6.3,11111222 
ADCP,ioos:station:wmo:42887:1,2014-01-04T09:40:00Z,28.1910,-88.4960,6.7,11111222 
ADCP,ioos:station:wmo:42887:1,2014-01-04T10:00:00Z,28.1910,-88.4960,7.5,11111222 
ADCP,ioos:station:wmo:42887:1,2014-01-04T10:20:00Z,28.1910,-88.4960,7.1,11111222 
ADCP,ioos:station:wmo:42887:1,2014-01-04T10:40:00Z,28.1910,-88.4960,6.6,11111222 
ADCP,ioos:station:wmo:42887:1,2014-01-04T11:00:00Z,28.1910,-88.4960,7.1,11111222 
ADCP,ioos:station:wmo:42887:1,2014-01-04T11:20:00Z,28.1910,-88.4960,7.4,11111222 
ADCP,ioos:station:wmo:42887:1,2014-01-04T11:40:00Z,28.1910,-88.4960,7.8,11111222 
ADCP,ioos:station:wmo:42887:1,2014-01-04T12:00:00Z,28.1910,-88.4960,7.4,11111222 
ADCP,ioos:station:wmo:42887:1,2014-01-04T12:20:00Z,28.1910,-88.4960,7.2,11111222 
ADCP,ioos:station:wmo:42887:1,2014-01-04T12:40:00Z,28.1910,-88.4960,7.2,11111222 
ADCP,ioos:station:wmo:42887:1,2014-01-04T13:00:00Z,28.1910,-88.4960,7.6,11111222 
ADCP,ioos:station:wmo:42887:1,2014-01-04T13:20:00Z,28.1910,-88.4960,8.0,11111222 
ADCP,ioos:station:wmo:42887:1,2014-01-04T13:40:00Z,28.1910,-88.4960,7.3,11111222 
ADCP,ioos:station:wmo:42887:1,2014-01-04T14:00:00Z,28.1910,-88.4960,7.3,11111222 
ADCP,ioos:station:wmo:42887:1,2014-01-04T14:20:00Z,28.1910,-88.4960,7.8,11111222 
ADCP,ioos:station:wmo:42887:1,2014-01-04T14:40:00Z,28.1910,-88.4960,8.1,11111222 
ADCP,ioos:station:wmo:42887:1,2014-01-04T15:00:00Z,28.1910,-88.4960,7.5,11111222 
ADCP,ioos:station:wmo:42887:1,2014-01-04T15:20:00Z,28.1910,-88.4960,7.6,11111222 
ADCP,ioos:station:wmo:42887:1,2014-01-04T15:40:00Z,28.1910,-88.4960,7.3,11111222 
ADCP,ioos:station:wmo:42887:1,2014-01-04T16:00:00Z,28.1910,-88.4960,7.3,11111222 
ADCP,ioos:station:wmo:42887:1,2014-01-04T16:20:00Z,28.1910,-88.4960,8.0,11111222 
ADCP,ioos:station:wmo:42887:1,2014-01-04T16:40:00Z,28.1910,-88.4960,8.0,11111222 
ADCP,ioos:station:wmo:42887:1,2014-01-04T17:00:00Z,28.1910,-88.4960,8.3,11111222 
ADCP,ioos:station:wmo:42887:1,2014-01-04T17:20:00Z,28.1910,-88.4960,8.8,11111222 
ADCP,ioos:station:wmo:42887:1,2014-01-04T17:40:00Z,28.1910,-88.4960,8.6,11111222 
ADCP,ioos:station:wmo:42887:1,2014-01-04T18:00:00Z,28.1910,-88.4960,8.9,11111222 
ADCP,ioos:station:wmo:42887:1,2014-01-04T18:20:00Z,28.1910,-88.4960,9.3,11111222 
ADCP,ioos:station:wmo:42887:1,2014-01-04T18:40:00Z,28.1910,-88.4960,9.2,11111222 
ADCP,ioos:station:wmo:42887:1,2014-01-04T19:00:00Z,28.1910,-88.4960,9.3,11111222 
ADCP,ioos:station:wmo:42887:1,2014-01-04T19:20:00Z,28.1910,-88.4960,9.3,11111222 
ADCP,ioos:station:wmo:42887:1,2014-01-04T19:40:00Z,28.1910,-88.4960,9.6,11111222 
ADCP,ioos:station:wmo:42887:1,2014-01-04T20:00:00Z,28.1910,-88.4960,9.7,11111222 
ADCP,ioos:station:wmo:42887:1,2014-01-04T20:20:00Z,28.1910,-88.4960,9.7,11111222 
ADCP,ioos:station:wmo:42887:1,2014-01-04T20:40:00Z,28.1910,-88.4960,10.1,11111222 
ADCP,ioos:station:wmo:42887:1,2014-01-04T21:00:00Z,28.1910,-88.4960,9.8,11111222 
ADCP,ioos:station:wmo:42887:1,2014-01-04T21:20:00Z,28.1910,-88.4960,10.1,11111222 
ADCP,ioos:station:wmo:42887:1,2014-01-04T22:00:00Z,28.1910,-88.4960,10.6,11111222 
ADCP,ioos:station:wmo:42887:1,2014-01-04T22:20:00Z,28.1910,-88.4960,10.8,11111222 
ADCP,ioos:station:wmo:42887:1,2014-01-04T22:40:00Z,28.1910,-88.4960,11.2,11111222 
ADCP,ioos:station:wmo:42887:1,2014-01-04T23:00:00Z,28.1910,-88.4960,11.4,11111222 
ADCP,ioos:station:wmo:42887:1,2014-01-04T23:20:00Z,28.1910,-88.4960,11.5,11111222 
ADCP,ioos:station:wmo:42887:1,2014-01-04T23:40:00Z,28.1910,-88.4960,11.6,11111222 
ADCP,ioos:station:wmo:42887:1,2014-01-05T00:00:00Z,28.1910,-88.4960,12.0,11111222 
ADCP,ioos:station:wmo:42887:1,2014-01-05T00:20:00Z,28.1910,-88.4960,12.0,11111222 
ADCP,ioos:station:wmo:42887:1,2014-01-05T00:40:00Z,28.1910,-88.4960,12.2,11111222 